Weather History for Window Rock, AZ

Change the Weather History Date:

Sunday, December 2, 2012

  Actual Average Record
Temperature  
Mean Temperature 35 °F -  
Max Temperature 55 °F 46 °F 64 °F (1946)
Min Temperature 15 °F 18 °F -2 °F (1991)
Degree Days  
Heating Degree Days 30    
Moisture  
Dew Point 17 °F    
Average Humidity 51    
Maximum Humidity 88    
Minimum Humidity 22    
Precipitation  
Precipitation 0.00 in - - ()
Sea Level Pressure  
Sea Level Pressure 30.09 in    
Wind  
Wind Speed 3 mph (SSW)    
Max Wind Speed 17 mph    
Max Gust Speed 26 mph    
Visibility 10 miles    
Events      
Averages and records for this station are not official NWS values.
T = Trace of Precipitation, MM = Missing Value Source: NWS Daily Summary

Daily Weather History Graph

Daily Weather History Graph

Search for Another Location

Airport:

Trip Planner

Search our weather history database for the weather conditions in past years. The results will help you decide how hot, cold, wet, or windy it might be!

Date:

Astronomy

Dec. 02, 2012 Rise Set
Actual Time 7:08 AM MST 5:02 PM MST
Civil Twilight 6:40 AM MST 5:30 PM MST
Nautical Twilight 6:09 AM MST 6:02 PM MST
Astronomical Twilight 5:38 AM MST 6:33 PM MST
Moon 8:50 PM MST (12/2) 10:03 AM MST (12/2)
Length of Visible Light 10h 50m
Length of Day
9h 53m
Waning Gibbous, 85% of the Moon is Illuminated
Dec 2
Waning Gibbous
Dec 6
Last Quarter
Dec 13
New
Dec 19
First Quarter
Dec 28
Full

Hourly Weather History & Observations

Time (MST) Temp. Windchill Dew Point Humidity Pressure Visibility Wind Dir Wind Speed Gust Speed Precip Events Conditions
12:53 AM 23.0 °F - 16.0 °F 74% 30.12 in 10.0 mi Calm Calm - N/A   Clear
1:53 AM 21.9 °F - 15.1 °F 75% 30.12 in 10.0 mi Calm Calm - N/A   Clear
2:53 AM 19.9 °F - 14.0 °F 78% 30.14 in 10.0 mi Calm Calm - N/A   Clear
3:53 AM 19.9 °F - 15.1 °F 81% 30.13 in 10.0 mi Calm Calm - N/A   Clear
4:53 AM 16.0 °F - 10.9 °F 81% 30.16 in 10.0 mi Calm Calm - N/A   Clear
5:53 AM 19.9 °F - 14.0 °F 78% 30.18 in 10.0 mi Calm Calm - N/A   Clear
6:53 AM 17.1 °F - 14.0 °F 88% 30.21 in 9.0 mi Calm Calm - N/A   Clear
7:53 AM 15.1 °F - 10.9 °F 84% 30.24 in 10.0 mi Calm Calm - N/A   Clear
8:53 AM 28.0 °F - 17.1 °F 63% 30.20 in 10.0 mi Calm Calm - N/A   Clear
9:53 AM 43.0 °F - 19.9 °F 40% 30.15 in 10.0 mi Calm Calm - N/A   Clear
10:53 AM 52.0 °F - 19.9 °F 28% 30.10 in 10.0 mi South 8.1 mph - N/A   Clear
11:53 AM 55.9 °F - 18.0 °F 23% 30.05 in 10.0 mi WSW 16.1 mph 21.9 mph N/A   Clear
12:53 PM 55.9 °F - 17.1 °F 22% 30.03 in 10.0 mi SW 17.3 mph 26.5 mph N/A   Clear
1:53 PM 55.9 °F - 17.1 °F 22% 30.03 in 10.0 mi SW 15.0 mph 25.3 mph N/A   Clear
2:53 PM 55.9 °F - 18.0 °F 23% 30.02 in 10.0 mi SW 12.7 mph - N/A   Clear
3:53 PM 55.0 °F - 17.1 °F 23% 30.02 in 10.0 mi SW 9.2 mph - N/A   Clear
4:53 PM 48.0 °F - 16.0 °F 28% 30.06 in 10.0 mi South 5.8 mph - N/A   Clear
5:53 PM 42.1 °F 40.2 °F 15.1 °F 34% 30.08 in 10.0 mi South 3.5 mph - N/A   Clear
6:53 PM 39.9 °F - 17.1 °F 40% 30.10 in 10.0 mi Calm Calm - N/A   Clear
7:53 PM 39.9 °F 35.1 °F 18.0 °F 41% 30.12 in 10.0 mi SW 6.9 mph - N/A   Clear
8:53 PM 39.9 °F 35.1 °F 19.9 °F 45% 30.07 in 10.0 mi South 6.9 mph - N/A   Clear
9:53 PM 42.1 °F 36.6 °F 23.0 °F 47% 29.99 in 10.0 mi SSW 9.2 mph - N/A   Clear
10:53 PM 42.1 °F 38.4 °F 24.1 °F 49% 29.96 in 10.0 mi SSW 5.8 mph - N/A   Clear
11:53 PM 41.0 °F 36.4 °F 24.1 °F 51% 29.94 in 10.0 mi SSW 6.9 mph - N/A   Clear